Weather Roundup
Issued by NWS Chicago, IL

Home | Current Version | Previous Version | Graphics & Text | Print | Product List | Glossary On
Versions: 1 2 3 4 5 6 7 8 9 10 11 12 13 14 15 16 17 18 19 20 21 22 23 24 25 26 27 28 29 30 31 32 33 34 35 36 37 38 39 40 41 42 43 44 45 46 47 48 49 50
000
NZUS59 KLOT 240009
HRRLOT

CHICAGO AREA WEATHER ROUNDUP
NATIONAL WEATHER SERVICE CHICAGO/ROMEOVILLE IL
700 PM CDT SUN JUL 23 2017

NOTE: "FAIR" INDICATES FEW OR NO CLOUDS BELOW 12,000 FEET WITH NO
SIGNIFICANT WEATHER AND/OR OBSTRUCTIONS TO VISIBILITY.

* THESE STATIONS ARE NOT UNDER NWS QUALITY CONTROL. THEY ALSO MAY NOT
  REPORT WEATHER SUCH AS PRECIPITATION OR FOG.

ILZ005-006-012>014-019>023-240100-
NORTHEAST ILLINOIS

CITY           SKY/WX    TMP DP  RH WIND       PRES   REMARKS
OHARE          CLOUDY    73  63  70 CALM      29.81R
6HR MIN TEMP:  70; 6HR MAX TEMP:  90; 6HR PCP:  0.21;

MIDWAY         CLOUDY    76  63  64 CALM      29.80R
6HR MIN TEMP:  73; 6HR MAX TEMP:  91; 6HR PCP:  0.03;

AURORA         CLOUDY    71  66  84 CALM      29.82R
6HR MIN TEMP:  69; 6HR MAX TEMP:  88; 6HR PCP:  0.11;

LANSING*       PTSUNNY   74  64  69 N7        29.80F
JOLIET*        MOSUNNY   71  65  82 S6        29.81F
WAUKEGAN       CLOUDY    75  67  76 VRB3      29.80S
6HR MIN TEMP:  72; 6HR MAX TEMP:  87; 6HR PCP:  0.03;

DUPAGE AIRPORT CLOUDY    72  67  84 W5        29.81R
6HR MIN TEMP:  67; 6HR MAX TEMP:  87; 6HR PCP:  0.50;

WHEELING       CLOUDY    73  67  81 NW3       29.83R
6HR MIN TEMP:  70; 6HR MAX TEMP:  88; 6HR PCP:  0.12;

MORRIS*        MOSUNNY   72  65  79 SE8       29.81R
LEWIS AIRPORT* CLOUDY    70  62  77 S7        29.80F
NORTHERLY ISL    N/A     77  62  59 NW2         N/A
$$

WIZ051-052-058>065-066-070>072-240100-
SOUTHEAST WISCONSIN

CITY           SKY/WX    TMP DP  RH WIND       PRES   REMARKS
MILWAUKEE      PTSUNNY   75  67  76 NE13      29.81R
6HR MIN TEMP:  75; 6HR MAX TEMP:  86; 6HR PCP:  0.01;

KENOSHA*       CLOUDY    76  69  79 SW3       29.81S
RACINE*        PTSUNNY   79  68  69 CALM      29.82S HX  81
WAUKESHA       MOSUNNY   77  61  57 NW9       29.83R
WEST BEND      MOSUNNY   73  66  78 E5        29.83R
$$

INZ001>003-010>013-019-020-240100-
NORTHWEST INDIANA

CITY           SKY/WX    TMP DP  RH WIND       PRES   REMARKS
GARY*          PTSUNNY   81  63  54 N9G21     29.81R HX  82
MICHIGAN CITY* NOT AVBL
RENSSELAER*    NOT AVBL
VALPARAISO     MOSUNNY   72  65  78 CALM      29.80F
$$

LMZ740>746-240100-
SOUTHERN LAKE MICHIGAN

STATION/POSITION TIME  SKY/WX   TEMP WIND        PRES    VSBY
                                AIR  DIR/SP/G
                 (UTC)          (F)  (DEG/KT/KT) (MB)    (MI)
HARRISON CRIB    2340            77  300/  7/  7   N/A
BURNHAM HARBOR   0000            77                N/A
CALUMET HARBOR   2348            76  220/  2/  4 1008.9R
BURNS HARBOR     2340            76  340/ 11/ 16 1010.2F
MICHIGAN CITY    2340            76  340/ 12/ 13   N/A
$$

ABBREVIATIONS USED IN REMARKS
   TC - TEMPERATURE IN CELSIUS
  WCI - WIND CHILL INDEX
   HX - HEAT INDEX
  VSB - VISIBILITY
$$




USA.gov is the U.S. government's official web portal to all federal, state and local government web resources and services.